[[{"header":{"parameterUnit":"m.s-1","parameterCategory":2,"la1":30.2992,"la2":30.254,"lo1":-89.0895,"lo2":-89.0443,"dy":0.0025,"dx":0.0025,"nx":19,"ny":19,"refTime":"2026-04-10T21:00:00:Z","depth":"0","parameterNumber":2,"parameterNumberName":"U-component_of_CURRENTS"},"data":[0,0,0,-0.2525,-0.2528,-0.265,-0.265,-0.2686,-0.2686,0,0,0,0,0,0,0,0,0,0,0,-0.2457,-0.2458,-0.2525,-0.2529,-0.265,-0.265,-0.2686,-0.2686,0,0,0,0,0,0,0,0,0,0,0,-0.2457,-0.2458,-0.2458,-0.2529,-0.265,-0.265,-0.2686,-0.2622,0,0,0,0,0,0,0,0,0,0,-0.2517,-0.2492,-0.2458,-0.2458,-0.253,-0.265,-0.265,-0.262,-0.2625,-0.2601,0,-0.2613,0,-0.2665,-0.2687,-0.2687,0,0,0,-0.2517,-0.2488,-0.251,-0.2459,-0.2531,-0.2649,-0.2592,-0.2624,-0.263,-0.2608,-0.2615,-0.2618,-0.2666,-0.2687,-0.2687,-0.275,-0.2751,0,0,-0.2511,-0.249,-0.2506,-0.2514,-0.2552,-0.2588,-0.2596,-0.2629,-0.2634,-0.2615,-0.262,-0.2666,-0.2687,-0.2687,-0.2749,-0.275,0,0,0,-0.2499,-0.2485,-0.2509,-0.2511,-0.2551,-0.2592,-0.2601,-0.2632,-0.2638,-0.2621,-0.2667,-0.2687,-0.2687,-0.2749,-0.275,-0.2821,0,0,0,-0.2494,-0.2479,-0.2506,-0.2496,-0.2551,-0.2616,-0.2603,-0.2634,-0.2642,-0.2666,-0.2687,-0.2688,-0.2748,-0.2749,-0.2818,-0.2831,0,0,0,-0.2454,-0.2477,-0.2484,-0.2494,-0.2555,-0.2617,-0.2625,-0.2638,-0.2669,-0.2687,-0.2688,-0.2748,-0.2749,-0.2815,-0.2826,-0.2885,0,0,0,-0.2436,-0.2472,-0.2484,-0.2548,-0.2553,-0.2652,-0.2626,-0.2676,-0.2693,-0.2687,-0.2748,-0.275,-0.2814,-0.2824,-0.2882,-0.2743,-0.2747,0,0,-0.2476,-0.2476,-0.2518,-0.2533,-0.2641,-0.2635,-0.2739,-0.2729,-0.2707,-0.2725,-0.2728,-0.2819,-0.2826,-0.2884,-0.2826,-0.2827,0,0,0,-0.2529,-0.256,-0.2598,-0.2661,-0.2715,-0.2766,-0.2779,-0.2794,-0.2813,-0.2729,-0.2828,-0.283,-0.2865,-0.2774,-0.2776,-0.2656,-0.2756,-0.2756,-0.2756,-0.2571,-0.261,-0.2681,-0.2735,-0.279,-0.2852,-0.2891,-0.2904,-0.2875,-0.2894,-0.2896,-0.2996,-0.2901,-0.29,-0.278,-0.2914,-0.2915,-0.2915,-0.2915,-0.2647,-0.2669,-0.2724,-0.2799,-0.2838,-0.2897,-0.298,-0.2978,-0.3041,-0.299,-0.3021,-0.2863,-0.2906,-0.2776,-0.292,-0.2919,-0.2918,-0.2918,-0.2918,-0.2645,-0.265,-0.2704,-0.2793,-0.2853,-0.2918,-0.3004,-0.3063,-0.3081,-0.3117,-0.301,-0.3006,-0.2885,-0.3133,-0.3134,-0.3134,-0.3134,-0.3135,-0.3135,-0.2593,-0.2648,-0.2692,-0.2786,-0.2836,-0.2914,-0.3027,-0.3076,-0.3092,-0.3066,-0.3065,-0.2891,-0.3062,-0.3045,-0.314,-0.3139,-0.3138,-0.3138,-0.3138,-0.2563,-0.258,-0.2669,-0.2726,-0.2849,-0.2846,-0.3002,-0.3024,-0.3093,-0.3066,-0.2853,-0.3044,-0.3005,-0.3001,-0.2982,-0.3055,-0.3055,-0.3055,-0.3055,-0.2515,-0.2533,-0.263,-0.2716,-0.2812,-0.282,-0.2738,-0.2706,-0.271,-0.264,-0.2756,-0.2653,-0.2662,-0.2598,-0.2603,-0.2574,-0.2542,-0.2542,-0.2541,-0.249,-0.253,-0.2561,-0.2649,-0.2769,-0.2708,-0.2471,-0.2304,-0.237,-0.2515,-0.2626,-0.2648,-0.2493,-0.2516,-0.2409,-0.2426,-0.2376,0,0]},{"header":{"parameterUnit":"m.s-1","parameterCategory":2,"la1":30.2992,"la2":30.254,"lo1":-89.0895,"lo2":-89.0443,"dy":0.0025,"dx":0.0025,"nx":19,"ny":19,"refTime":"2026-04-10T21:00:00:Z","depth":"0","parameterNumber":3,"parameterNumberName":"V-component_of_CURRENTS"},"data":[0,0,0,-0.0875,-0.0871,-0.0655,-0.0654,-0.0339,-0.0336,0,0,0,0,0,0,0,0,0,0,0,-0.0958,-0.0957,-0.0875,-0.087,-0.0655,-0.0654,-0.0339,-0.0336,0,0,0,0,0,0,0,0,0,0,0,-0.0958,-0.0957,-0.0956,-0.087,-0.0655,-0.0654,-0.034,-0.0508,0,0,0,0,0,0,0,0,0,0,-0.072,-0.085,-0.0958,-0.0956,-0.0869,-0.0656,-0.0654,-0.0516,-0.0497,-0.0431,0,-0.0413,0,-0.0369,-0.0316,-0.0315,0,0,0,-0.0852,-0.0867,-0.0768,-0.0956,-0.0867,-0.0656,-0.0747,-0.0506,-0.0485,-0.0406,-0.0408,-0.0396,-0.0363,-0.0314,-0.0312,-0.0138,-0.0138,0,0,-0.0864,-0.0948,-0.0784,-0.0756,-0.0829,-0.0754,-0.0741,-0.0493,-0.0502,-0.0407,-0.0389,-0.0358,-0.0312,-0.0309,-0.0137,-0.0138,0,0,0,-0.091,-0.0957,-0.0866,-0.0769,-0.0734,-0.0748,-0.0733,-0.0513,-0.0472,-0.0385,-0.0355,-0.031,-0.0306,-0.0137,-0.0138,-0.0255,0,0,0,-0.0917,-0.0984,-0.0872,-0.0923,-0.074,-0.0637,-0.0759,-0.0489,-0.046,-0.0356,-0.031,-0.0303,-0.0137,-0.0137,-0.0251,-0.0319,0,0,0,-0.0965,-0.099,-0.0961,-0.0928,-0.0837,-0.0639,-0.0585,-0.0482,-0.0441,-0.0314,-0.0303,-0.0136,-0.0137,-0.0247,-0.0312,-0.0308,0,0,0,-0.1059,-0.1051,-0.0965,-0.0933,-0.0839,-0.0699,-0.0586,-0.0477,-0.038,-0.0308,-0.0137,-0.0137,-0.0246,-0.0307,-0.0305,-0.0205,-0.0213,0,0,-0.1097,-0.1059,-0.1028,-0.0944,-0.0846,-0.0726,-0.0641,-0.047,-0.037,-0.021,-0.0206,-0.0252,-0.0311,-0.0307,-0.0255,-0.0261,0,0,0,-0.1068,-0.1049,-0.1004,-0.0923,-0.0798,-0.0719,-0.0549,-0.0485,-0.036,-0.0317,-0.0237,-0.027,-0.0264,-0.0196,-0.0201,0.0094,-0.0141,-0.0141,-0.0141,-0.1195,-0.1093,-0.105,-0.092,-0.0849,-0.0695,-0.063,-0.0512,-0.0393,-0.0378,-0.0354,-0.042,-0.0349,-0.0352,-0.005,-0.033,-0.0331,-0.0331,-0.0331,-0.122,-0.1175,-0.1086,-0.1015,-0.0914,-0.0838,-0.0689,-0.0618,-0.0514,-0.0444,-0.043,-0.031,-0.0364,-0.004,-0.0339,-0.0337,-0.0336,-0.0336,-0.0335,-0.1265,-0.1242,-0.1198,-0.1128,-0.1075,-0.0948,-0.0926,-0.0792,-0.0637,-0.0627,-0.0476,-0.0472,-0.0192,-0.0595,-0.0595,-0.0595,-0.0596,-0.0596,-0.0596,-0.134,-0.1299,-0.1314,-0.1242,-0.1239,-0.1203,-0.1064,-0.0987,-0.0761,-0.06,-0.0597,-0.0168,-0.0498,-0.0495,-0.0601,-0.06,-0.0599,-0.0599,-0.0598,-0.1369,-0.1401,-0.1442,-0.1457,-0.1453,-0.1473,-0.1324,-0.1068,-0.0919,-0.0778,-0.0164,-0.0549,-0.049,-0.0482,-0.0476,-0.0571,-0.0571,-0.0571,-0.0571,-0.1436,-0.1432,-0.1571,-0.1647,-0.1687,-0.1613,-0.1503,-0.1127,-0.0474,-0.0086,0.0012,0.0132,0.0118,0.022,0.0212,0.0236,0.0324,0.0325,0.0327,-0.1474,-0.1532,-0.1654,-0.1737,-0.18,-0.1763,-0.159,-0.1054,-0.0052,0.0391,0.0401,0.0363,0.0566,0.052,0.0702,0.0667,0.0714,0,0]}],[{"header":{"parameterUnit":"m.s-1","parameterCategory":2,"la1":30.2992,"la2":30.254,"lo1":-89.0895,"lo2":-89.0443,"dy":0.0025,"dx":0.0025,"nx":19,"ny":19,"refTime":"2026-04-10T21:00:00:Z","depth":"2","parameterNumber":2,"parameterNumberName":"U-component_of_CURRENTS"},"data":[0,0,0,-0.1702,-0.1709,-0.1938,-0.1938,-0.2026,-0.2028,0,0,0,0,0,0,0,0,0,0,0,-0.1643,-0.1647,-0.1701,-0.171,-0.1938,-0.1938,-0.2026,-0.2028,0,0,0,0,0,0,0,0,0,0,0,-0.1641,-0.1646,-0.1652,-0.1711,-0.1938,-0.1938,-0.2026,-0.1886,0,0,0,0,0,0,0,0,0,0,-0.1681,-0.1556,-0.1645,-0.1652,-0.1713,-0.1938,-0.1938,-0.188,-0.1894,-0.1888,0,-0.2014,0,-0.2048,-0.2036,-0.2036,0,0,0,-0.1633,-0.1544,-0.175,-0.1652,-0.1716,-0.1938,-0.1813,-0.1889,-0.1905,-0.1906,-0.2016,-0.202,-0.2049,-0.2037,-0.2037,-0.2092,-0.2091,0,0,-0.162,-0.1519,-0.1741,-0.1764,-0.1891,-0.1807,-0.1822,-0.19,-0.1875,-0.2016,-0.2023,-0.2051,-0.2037,-0.2038,-0.2092,-0.2092,0,0,0,-0.1636,-0.1508,-0.1712,-0.1759,-0.1832,-0.1815,-0.1832,-0.1868,-0.1983,-0.2024,-0.2052,-0.2038,-0.204,-0.2092,-0.2092,-0.2219,0,0,0,-0.1624,-0.1527,-0.1708,-0.1624,-0.1835,-0.1849,-0.1797,-0.1977,-0.1987,-0.2051,-0.2038,-0.2041,-0.2093,-0.2092,-0.2217,-0.2292,0,0,0,-0.1612,-0.1517,-0.1617,-0.1623,-0.1773,-0.1852,-0.1959,-0.1979,-0.2006,-0.2036,-0.2041,-0.2093,-0.2092,-0.2214,-0.2286,-0.2454,0,0,0,-0.1397,-0.1566,-0.1614,-0.1748,-0.1773,-0.192,-0.1958,-0.2011,-0.2038,-0.2039,-0.2093,-0.2092,-0.2213,-0.2283,-0.2449,-0.2213,-0.222,0,0,-0.1502,-0.1572,-0.1654,-0.1708,-0.1827,-0.1876,-0.196,-0.2033,-0.2013,-0.204,-0.2043,-0.2217,-0.2286,-0.2453,-0.2167,-0.2176,0,0,0,-0.1612,-0.17,-0.1721,-0.1815,-0.1905,-0.198,-0.2057,-0.2053,-0.2098,-0.2049,-0.2165,-0.2203,-0.2307,-0.2149,-0.2156,-0.2088,-0.2088,-0.2088,-0.2088,-0.1584,-0.1686,-0.1754,-0.1905,-0.1969,-0.206,-0.2138,-0.2163,-0.2133,-0.2147,-0.2268,-0.2426,-0.225,-0.2255,-0.221,-0.221,-0.2211,-0.2211,-0.2211,-0.1686,-0.174,-0.1799,-0.1936,-0.2024,-0.2126,-0.2238,-0.2284,-0.2429,-0.229,-0.2387,-0.2238,-0.227,-0.222,-0.2219,-0.2218,-0.2217,-0.2216,-0.2215,-0.171,-0.1727,-0.1803,-0.1916,-0.203,-0.2177,-0.2358,-0.2457,-0.2529,-0.2669,-0.2526,-0.2519,-0.2587,-0.2726,-0.2728,-0.2729,-0.273,-0.273,-0.2731,-0.1621,-0.1674,-0.18,-0.1921,-0.1975,-0.2171,-0.2432,-0.2585,-0.2671,-0.2654,-0.2652,-0.2601,-0.2584,-0.2616,-0.2747,-0.2744,-0.2742,-0.2741,-0.274,-0.169,-0.1686,-0.1766,-0.1851,-0.2023,-0.2122,-0.241,-0.2633,-0.2805,-0.2809,-0.2662,-0.2658,-0.2619,-0.2605,-0.2634,-0.2765,-0.2765,-0.2765,-0.2765,-0.1685,-0.1729,-0.1708,-0.1781,-0.1944,-0.2096,-0.2269,-0.2349,-0.2463,-0.2394,-0.2411,-0.2178,-0.2184,-0.2109,-0.2107,-0.2121,-0.212,-0.2118,-0.2118,-0.1712,-0.1627,-0.1667,-0.1737,-0.1863,-0.2065,-0.2068,-0.1899,-0.1884,-0.2096,-0.2334,-0.2715,-0.2404,-0.2402,-0.2304,-0.2294,-0.2323,0,0]},{"header":{"parameterUnit":"m.s-1","parameterCategory":2,"la1":30.2992,"la2":30.254,"lo1":-89.0895,"lo2":-89.0443,"dy":0.0025,"dx":0.0025,"nx":19,"ny":19,"refTime":"2026-04-10T21:00:00:Z","depth":"2","parameterNumber":3,"parameterNumberName":"V-component_of_CURRENTS"},"data":[0,0,0,-0.0441,-0.044,-0.0313,-0.0311,-0.0086,-0.0085,0,0,0,0,0,0,0,0,0,0,0,-0.0537,-0.0539,-0.0441,-0.044,-0.0313,-0.0311,-0.0086,-0.0085,0,0,0,0,0,0,0,0,0,0,0,-0.0536,-0.0538,-0.0541,-0.044,-0.0313,-0.0311,-0.0087,-0.0185,0,0,0,0,0,0,0,0,0,0,-0.0311,-0.035,-0.0538,-0.0541,-0.044,-0.0313,-0.0311,-0.019,-0.0179,-0.0144,0,-0.0209,0,-0.0144,-0.0073,-0.0073,0,0,0,-0.0384,-0.0359,-0.0408,-0.0541,-0.0439,-0.0314,-0.0354,-0.0184,-0.0171,-0.0129,-0.0205,-0.0195,-0.014,-0.0072,-0.0071,0.0097,0.0097,0,0,-0.0391,-0.0405,-0.0418,-0.0404,-0.0516,-0.0359,-0.0351,-0.0176,-0.0159,-0.0204,-0.0189,-0.0137,-0.0071,-0.007,0.0096,0.0097,0,0,0,-0.0449,-0.041,-0.0461,-0.0415,-0.0398,-0.0357,-0.0347,-0.0165,-0.0211,-0.0186,-0.0134,-0.007,-0.0068,0.0096,0.0097,-0.0065,0,0,0,-0.045,-0.0449,-0.0467,-0.0457,-0.0405,-0.0266,-0.0341,-0.0224,-0.02,-0.0135,-0.007,-0.0066,0.0095,0.0096,-0.0062,-0.0143,0,0,0,-0.0523,-0.045,-0.0492,-0.0461,-0.0435,-0.027,-0.0296,-0.0216,-0.017,-0.0072,-0.0066,0.0095,0.0096,-0.006,-0.0136,-0.0179,0,0,0,-0.046,-0.0548,-0.0494,-0.0512,-0.0438,-0.0373,-0.0296,-0.0191,-0.0115,-0.0069,0.0095,0.0096,-0.0059,-0.0132,-0.0176,-0.0081,-0.0091,0,0,-0.0538,-0.0556,-0.0556,-0.0506,-0.047,-0.038,-0.0295,-0.0175,-0.0075,0.005,0.0054,-0.0063,-0.0136,-0.0179,-0.0002,-0.0015,0,0,0,-0.0552,-0.0592,-0.0557,-0.0517,-0.0442,-0.0378,-0.0252,-0.0177,-0.0062,-0.0036,0.0011,-0.0028,-0.0052,0.0017,0.0008,0.0103,0.0103,0.0103,0.0102,-0.0617,-0.0582,-0.0572,-0.0549,-0.0498,-0.0357,-0.0301,-0.0179,-0.0095,-0.0056,-0.0106,-0.0175,-0.0099,-0.0106,-0.0035,-0.0036,-0.0036,-0.0037,-0.0037,-0.0701,-0.07,-0.0624,-0.064,-0.0557,-0.0509,-0.0362,-0.0306,-0.0239,-0.0143,-0.0159,-0.0088,-0.0126,-0.0048,-0.0046,-0.0045,-0.0043,-0.0043,-0.0042,-0.0772,-0.0775,-0.076,-0.0738,-0.0707,-0.0628,-0.0622,-0.05,-0.0381,-0.0412,-0.0291,-0.0286,-0.0314,-0.0421,-0.0422,-0.0422,-0.0423,-0.0423,-0.0424,-0.083,-0.081,-0.0879,-0.0863,-0.0864,-0.0872,-0.0778,-0.0734,-0.0568,-0.0443,-0.044,-0.0303,-0.0291,-0.0331,-0.0432,-0.0431,-0.0429,-0.0429,-0.0428,-0.0964,-0.0945,-0.1018,-0.105,-0.1076,-0.1127,-0.1025,-0.0875,-0.0777,-0.0681,-0.0427,-0.0424,-0.0359,-0.0347,-0.0383,-0.0493,-0.0493,-0.0493,-0.0493,-0.1045,-0.1052,-0.1125,-0.1191,-0.1253,-0.1246,-0.1243,-0.0969,-0.0656,-0.0442,-0.0445,-0.0341,-0.0338,-0.0266,-0.0255,-0.0287,-0.0372,-0.0372,-0.0372,-0.1122,-0.1102,-0.1218,-0.1273,-0.1335,-0.1393,-0.1352,-0.0929,-0.0424,-0.0372,-0.0477,-0.0475,-0.0321,-0.0318,-0.0198,-0.0185,-0.0232,0,0]}],[{"header":{"parameterUnit":"m.s-1","parameterCategory":2,"la1":30.2992,"la2":30.254,"lo1":-89.0895,"lo2":-89.0443,"dy":0.0025,"dx":0.0025,"nx":19,"ny":19,"refTime":"2026-04-10T21:00:00:Z","depth":"4","parameterNumber":2,"parameterNumberName":"U-component_of_CURRENTS"},"data":[0,0,0,-0.0734,-0.0735,-0.0806,-0.0806,-0.0849,-0.0849,0,0,0,0,0,0,0,0,0,0,0,-0.0704,-0.0704,-0.0733,-0.0735,-0.0806,-0.0806,-0.0849,-0.0849,0,0,0,0,0,0,0,0,0,0,0,-0.0704,-0.0704,-0.0705,-0.0736,-0.0806,-0.0806,-0.0849,-0.0806,0,0,0,0,0,0,0,0,0,0,-0.0743,-0.0715,-0.0704,-0.0705,-0.0736,-0.0806,-0.0806,-0.0805,-0.0809,-0.0805,0,-0.0819,0,-0.0839,-0.0852,-0.0852,0,0,0,-0.0731,-0.0711,-0.0742,-0.0705,-0.0737,-0.0805,-0.0773,-0.0807,-0.0812,-0.0811,-0.082,-0.0822,-0.084,-0.0852,-0.0852,-0.0934,-0.0935,0,0,-0.0727,-0.0704,-0.0739,-0.0745,-0.0758,-0.077,-0.0775,-0.0811,-0.0808,-0.082,-0.0823,-0.084,-0.0852,-0.0852,-0.0934,-0.0934,0,0,0,-0.0719,-0.0701,-0.0732,-0.0743,-0.0762,-0.0772,-0.0778,-0.0807,-0.0821,-0.0824,-0.0841,-0.0852,-0.0853,-0.0933,-0.0934,-0.1009,0,0,0,-0.0716,-0.0698,-0.073,-0.0716,-0.0761,-0.0789,-0.0772,-0.0818,-0.0823,-0.0841,-0.0852,-0.0853,-0.0932,-0.0933,-0.1005,-0.1028,0,0,0,-0.07,-0.0695,-0.0708,-0.0715,-0.075,-0.079,-0.0805,-0.082,-0.0833,-0.0852,-0.0853,-0.0932,-0.0933,-0.1002,-0.1023,-0.1136,0,0,0,-0.067,-0.068,-0.0707,-0.0723,-0.0749,-0.0806,-0.0805,-0.0844,-0.0863,-0.0853,-0.0932,-0.0934,-0.1001,-0.102,-0.1132,-0.0915,0,0,0,-0.0665,-0.0678,-0.0689,-0.0716,-0.0749,-0.0796,-0.0862,-0.0886,-0.0885,-0.0914,-0.0917,-0.1006,-0.1023,-0.1135,-0.1007,0,0,0,0,-0.0677,-0.0681,-0.0695,-0.0723,-0.0775,-0.085,-0.0887,-0.0934,-0.0993,-0.0906,-0.1017,-0.1024,-0.1094,-0.0954,-0.0941,-0.0941,-0.0941,-0.0941,-0.0941,-0.0598,-0.0647,-0.0665,-0.0731,-0.0779,-0.0895,-0.0971,-0.1042,-0.1029,-0.1083,-0.1094,-0.1238,-0.1091,-0.1107,-0.1108,-0.1108,-0.1108,-0.1108,-0.1109,-0.0565,-0.0568,-0.0649,-0.069,-0.0795,-0.0885,-0.1044,-0.1099,-0.1244,-0.1189,-0.1254,-0.1049,-0.1116,-0.1115,-0.1114,-0.1113,-0.1112,-0.1112,-0.1111,-0.0474,-0.0493,-0.0539,-0.0622,-0.076,-0.0903,-0.1016,-0.1164,-0.129,-0.137,-0.1262,-0.1311,-0.1299,-0.1425,-0.1426,-0.1427,-0.1427,-0.1428,-0.1428,-0.0362,-0.0417,-0.0441,-0.057,-0.0647,-0.0762,-0.1037,-0.1129,-0.1315,-0.1327,-0.141,-0.1345,-0.1335,-0.1318,-0.1438,-0.1436,-0.1435,-0.1434,-0.1433,-0.0232,-0.0284,-0.0316,-0.0368,-0.0525,-0.0609,-0.0857,-0.1091,-0.1249,-0.1336,-0.1322,-0.1325,-0.1289,-0.1281,-0.126,-0.1367,-0.1365,-0.1362,0,-0.0138,-0.0167,-0.0204,-0.0249,-0.0305,-0.0493,-0.0628,-0.0819,-0.1088,-0.1053,-0.1206,-0.1176,-0.1181,-0.112,-0.111,-0.1073,0,0,0,-0.0045,-0.0091,-0.0066,-0.0141,-0.0218,-0.042,-0.0644,-0.0733,-0.1037,-0.1157,-0.1305,-0.132,-0.1275,-0.1466,-0.1419,-0.1406,-0.1377,0,0]},{"header":{"parameterUnit":"m.s-1","parameterCategory":2,"la1":30.2992,"la2":30.254,"lo1":-89.0895,"lo2":-89.0443,"dy":0.0025,"dx":0.0025,"nx":19,"ny":19,"refTime":"2026-04-10T21:00:00:Z","depth":"4","parameterNumber":3,"parameterNumberName":"V-component_of_CURRENTS"},"data":[0,0,0,0.0283,0.0284,0.0319,0.0319,0.0333,0.0333,0,0,0,0,0,0,0,0,0,0,0,0.0265,0.0265,0.0283,0.0284,0.0319,0.0319,0.0333,0.0333,0,0,0,0,0,0,0,0,0,0,0,0.0265,0.0265,0.0265,0.0284,0.0319,0.0319,0.0333,0.0315,0,0,0,0,0,0,0,0,0,0,0.0284,0.0276,0.0265,0.0265,0.0284,0.0319,0.0319,0.0314,0.0316,0.0308,0,0.031,0,0.0323,0.0333,0.0333,0,0,0,0.0285,0.0275,0.028,0.0265,0.0284,0.0319,0.0303,0.0315,0.0317,0.031,0.031,0.0311,0.0324,0.0333,0.0333,0.0293,0.0292,0,0,0.0283,0.0275,0.0279,0.0281,0.0288,0.0302,0.0304,0.0317,0.0317,0.031,0.0312,0.0324,0.0333,0.0334,0.0293,0.0293,0,0,0,0.0276,0.0274,0.028,0.028,0.029,0.0303,0.0306,0.0317,0.0318,0.0312,0.0324,0.0334,0.0334,0.0294,0.0293,0.0236,0,0,0,0.0275,0.027,0.0279,0.0276,0.029,0.031,0.0306,0.0317,0.0319,0.0324,0.0334,0.0334,0.0294,0.0293,0.0239,0.0197,0,0,0,0.0264,0.027,0.0271,0.0275,0.0291,0.031,0.0312,0.0318,0.0326,0.0333,0.0334,0.0295,0.0294,0.0241,0.0202,0.0216,0,0,0,0.0259,0.024,0.0271,0.0242,0.029,0.0253,0.0312,0.0304,0.0304,0.0334,0.0294,0.0293,0.0242,0.0204,0.0218,0.0128,0,0,0,0.0226,0.0236,0.0214,0.0242,0.0178,0.0249,0.02,0.0241,0.0286,0.029,0.0289,0.0238,0.0202,0.0216,0.0064,0,0,0,0,0.0196,0.0174,0.016,0.0135,0.013,0.0119,0.0164,0.0205,0.0239,0.0283,0.0231,0.021,0.0221,0.0174,0.0288,0.0288,0.0288,0.0288,0.0288,0.0157,0.0129,0.0065,0.0026,0.0001,0.0031,0.0049,0.0112,0.0163,0.0183,0.0159,0.0121,0.0066,0.0165,0.0164,0.0164,0.0164,0.0164,0.0163,0.0075,0.0024,-0.0021,-0.0089,-0.0104,-0.0128,-0.007,-0.0002,0.0062,0.0107,0.0122,0.011,0.0158,0.0159,0.016,0.016,0.0161,0.0161,0.0161,0.0044,0.0004,-0.003,-0.0137,-0.0203,-0.0206,-0.0231,-0.0139,-0.0009,0.0005,0.0,0.009,0.0103,0.0033,0.0033,0.0033,0.0033,0.0033,0.0032,0.0027,-0.0025,-0.0088,-0.0191,-0.0265,-0.0327,-0.0303,-0.0265,-0.0141,-0.0089,-0.0003,0.0077,0.0082,0.0096,0.003,0.0031,0.0031,0.0031,0.0031,-0.0012,-0.0023,-0.013,-0.0205,-0.0389,-0.0441,-0.0443,-0.037,-0.0304,-0.0231,-0.0117,-0.0109,-0.0089,-0.008,-0.0071,-0.0188,-0.0189,-0.019,0,-0.0022,-0.004,-0.0185,-0.0329,-0.0469,-0.0538,-0.0535,-0.0477,-0.0314,-0.0303,-0.0245,-0.0117,-0.011,-0.0088,-0.0082,-0.0073,0,0,0,-0.0033,-0.009,-0.018,-0.0344,-0.0529,-0.056,-0.0532,-0.0497,-0.0359,-0.0348,-0.0225,-0.0216,-0.0141,0.0024,0.0074,0.0079,0.0105,0,0]}]]